星链-33974 (STARLINK-33974)

导读

STARLINK-33974是美国SpaceX星链星座中的一颗卫星,于2025年5月13日发射升空。星链计划旨在构建全球卫星互联网星座,为全球各地提供高速互联网接入服务。该卫星继承星链平台设计,承担低轨卫星通信任务,服务全球偏远地区网络覆盖,助力天地一体化网络建设。

Basic Information
目录编号:
63954
目录名称:
STARLINK-33974
国际标识:
2025-099C
轨道中心:
EARTH
卫星名称:
星链-33974
卫星全名:
星链-33974 (STARLINK-33974)
卫星状态:
在轨 (已飞行397 天)
发射日期:
2025-05-13 UTC
国别 :
美国 (US)
星等 :
--
Orbit Information
数据来源 国际轨道数据 AOE轨道数据
星历时间 2026-06-14T03:40:38+0800
10小时前
查看轨道信息
2026-06-11T17:00:00+0800
2天前
查看轨道信息
半长轴 6861.162km 6861.224km
偏心率 0.0001562 0.0000013
轨道倾角 42.997° 43.001°
近地点辐角 262.933° 175.373°
升交点赤经 353.724° 7.535°
平近点角 97.135° 43.837°
近地点 481.953km 483.078km
远地点 484.097km 483.096km
周期 94.266分钟 94.268分钟
每日圈数 15.275881 15.275676
Detailed Information
固有亮度:
5
最大亮度:
2.5
卫星平台:
Starlink V1.0
覆盖范围:
全球
运营商:
太空探索技术公司
运营商所在国:
美国
制造商(研发单位):
太空探索技术公司
制造商所在国:
美国
使用方式:
暂无
Satellite Introduction
Starlink 计划是 SpaceX 推出的全球卫星互联网项目,通过发射低轨道卫星,为全球尤其是偏远地区提供高速、低延迟的互联网服务。自 2019 年起,Starlink 已部署数千颗卫星,旨在缩小全球数字鸿沟,推动互联网普及。该项目还为军事、航空等行业提供通信支持,带来广泛经济效益。
2D Orbit Map
3D Orbit Map
Orbit Altitude Analysis Chart
Orbit Inclination Analysis Chart
Orbit Comprehensive Analysis Chart
View Comprehensive Chart